(472) Roma
ephemeris date magn radius delta ra dec elong phase
Today2 Jul 202514.32.546 AU3.198 AU09h47m+20°18'42.7°15.7°
Opposition7 May 202613.02.774 AU1.823 AU15h25m+06°13'155.9°8.6°
(472) Roma - 2025-07-02
astro.vanbuitenen.nl


 
-1 year
-1 month
-1 day
Now
+1 day
+1 month
+1 year

The interactive orbit chart above shows the body's path through the solar system and its position at the given date. Green and blue lines are shown perpendicular to the ecliptic plane: Green if the path is above the ecliptic plane, blue if it is below. (Left-click and drag to rotate the view; Right-click and drag to move the view; Use scroll wheel to zoom in our out.)

The orbital elements of Roma are:

            e (Eccentricity)                : 0.0955488
            a (Semimajor axis)              : 2.5430586
            i (Inclination)                 : 15.81615
            Ω (Longitude of ascending node) : 126.99822
            ω (Argument of perihelion)      : 295.85191
            M (Mean anomaly)                : 71.19850
            Epoch                           : 2025 May 05

            L (Longitude of perihelion)     : 63.72818
            B (Latitude of perihelion)      : -14.19812
            P (Orbital period in years)     : 4.06            
        

The light curve chart below shows the estimated development of the minor planet's magnitude.


The all-sky chart below shows the path of the minor planet over the same period as the light curve. The current position is marked yellow.





The following chart shows the path of the minor planet in the next few days. The field of view is optimized for (~10x50) binoculars and finderscopes. A more printer-friendly version of the same chart can be found below.




Ephemerides:
Date       Time       RA (2000)    DEC (2000)    delta   radius  elong  phase   PA    magn
2025-07-02 00:00 UT   09 47 57.9   +20 18 48     3.198    2.546   42.7   15.7   102   14.3 
2025-07-02 03:20 UT   09 48 11.8   +20 17 53     3.199    2.546   42.7   15.7   102   14.3 
2025-07-03 00:00 UT   09 49 38.4   +20 12 08     3.207    2.547   42.2   15.5   102   14.3 
2025-07-04 00:00 UT   09 51 19.0   +20 05 25     3.217    2.548   41.7   15.4   102   14.3 
2025-07-05 00:00 UT   09 52 59.7   +19 58 37     3.226    2.549   41.1   15.2   102   14.3 
2025-07-06 00:00 UT   09 54 40.4   +19 51 46     3.235    2.550   40.6   15.0   102   14.3 
2025-07-07 00:00 UT   09 56 21.2   +19 44 52     3.244    2.551   40.1   14.9   102   14.3 
2025-07-08 00:00 UT   09 58 02.1   +19 37 54     3.253    2.552   39.6   14.7   102   14.3 
2025-07-09 00:00 UT   09 59 43.0   +19 30 53     3.262    2.554   39.0   14.5   102   14.3 
2025-07-10 00:00 UT   10 01 23.9   +19 23 48     3.270    2.555   38.5   14.3   102   14.3 
2025-07-11 00:00 UT   10 03 04.9   +19 16 40     3.279    2.556   38.0   14.2   102   14.3 
2025-07-12 00:00 UT   10 04 45.9   +19 09 29     3.288    2.557   37.5   14.0   101   14.3 
2025-07-13 00:00 UT   10 06 27.0   +19 02 15     3.296    2.558   36.9   13.8   101   14.3 
2025-07-14 00:00 UT   10 08 08.1   +18 54 57     3.304    2.559   36.4   13.6   101   14.3 
2025-07-15 00:00 UT   10 09 49.2   +18 47 36     3.313    2.560   35.9   13.5   101   14.3 
2025-07-16 00:00 UT   10 11 30.3   +18 40 12     3.321    2.561   35.4   13.3   101   14.3 
2025-07-17 00:00 UT   10 13 11.5   +18 32 45     3.329    2.562   34.9   13.1   101   14.3 
2025-07-18 00:00 UT   10 14 52.7   +18 25 15     3.337    2.563   34.4   12.9   101   14.3 
2025-07-19 00:00 UT   10 16 34.0   +18 17 42     3.345    2.564   33.8   12.8   100   14.3 
2025-07-20 00:00 UT   10 18 15.2   +18 10 06     3.352    2.565   33.3   12.6   100   14.3 
2025-07-21 00:00 UT   10 19 56.5   +18 02 27     3.360    2.566   32.8   12.4   100   14.3 
2025-07-22 00:00 UT   10 21 37.8   +17 54 45     3.367    2.567   32.3   12.2   100   14.3 


    Terminology:
            
    delta:  distance between minor planet and earth in AU
    radius: distance between minor planet and sun in AU
    magn:   magnitude (brightness) estimate    
    ra:     right ascension in hours (24h = 360deg)
    dec:    declination in degrees
    elong:  elongation in degrees (angle sun-earth-minor planet)    
    phase:  phase angle in degrees (angle sun-minor planet-earth)        
    AU:     Astronomical Unit (mean distance between earth and sun: 149597870.7 km
    

Orbital elements provided by the MPC (Minor Planet Center).
Calculations by a modified version of AAPlus, a C# implementation of the AA+ project by PJ Naughter from the algorithms presented in the book "Astronomical Algorithms" by Jean Meeus.
NGC2000 dso catalog and star labels from VizieR as provided by the Strasbourg astronomical Data Center.
Tycho2 catalog from the ESO archive.